Flag for U.S.A. Weather past 2 weeks in Port Angeles, Washington, U.S.A.

Now
60 °F

Passing clouds.


Feels Like: 60 °F
Forecast: 54 / 64 °F
Wind: 9 mph from West

Location: William R. Fairchild International Airport

Current Time: Sep 21, 2014 at 10:08:05 PM

Latest Report: Sep 21, 2014 at 8:53 PM


Visibility: 10 mi

Pressure: 29.89 "Hg

Humidity: 86%

Dew point: 56 °F

Location of Port AngelesLocation

Historic Weather in Port Angeles — Graph

°F

Port Angeles temperature yesterday

Maximum temperature yesterday: 68 °F (at 3:53 PM)
Minimum temperature yesterday: 53 °F (at 3:04 AM)
Average temperature yesterday: 61 °F

Past Weeks' High & Low Weather Summary

 TemperatureHumidityPressure
High78 °F (Sep 15, 3:53 PM)96% (Sep 8, 12:53 AM)30.33 "Hg (Sep 8, 12:53 AM)
Low46 °F (Sep 14, 6:53 AM)19% (Sep 13, 5:53 PM)29.73 "Hg (Sep 17, 5:53 PM)
Average61 °F66%29.94 "Hg
* Reported Sep 6 8:53 PM — Sep 21 8:53 PM, Port Angeles, Weather by CustomWeather, © 2014

Note: Actual official high and low records may vary slightly from our data, if they occured in-between our weather recording intervals... More about our weather records

Advertising

Port Angeles weather history for previous 24 hours

 ConditionsComfort  
Time TempWeatherWind HumidityBarometerVisibility
8:53 PM
Sep 21
60 °FPassing clouds.9 mph86%29.89 "Hg10 mi
7:53 PM60 °FCool.10 mph83%29.88 "Hg10 mi
6:53 PM62 °FCool.14 mph80%29.88 "Hg10 mi
5:53 PM64 °FLight rain. Cloudy.13 mph75%29.87 "Hg10 mi
4:53 PM67 °FMild.16 mph68%29.86 "Hg10 mi
3:53 PM68 °FMild.10 mph65%29.86 "Hg10 mi
2:53 PM69 °FSunny.9 mph63%29.86 "Hg10 mi
1:53 PM68 °FSunny.9 mph57%29.87 "Hg10 mi
12:53 PM67 °FSunny.6 mph59%29.88 "Hg10 mi
11:53 AM67 °FSunny.6 mph61%29.88 "Hg10 mi
10:53 AM67 °FSunny.5 mph61%29.88 "Hg10 mi
9:53 AM68 °FMild.3 mph61%29.88 "Hg10 mi
8:53 AM63 °FMild.3 mph75%29.87 "Hg10 mi
7:53 AM56 °FCool.No wind90%29.87 "Hg10 mi
6:53 AM51 °FCool.No wind89%29.87 "Hg10 mi
5:53 AM51 °FCool.3 mph92%29.87 "Hg10 mi
4:53 AM51 °FCool.No wind92%29.86 "Hg10 mi
3:53 AM52 °FClear.No wind89%29.87 "Hg10 mi
2:53 AM53 °FCool.No wind93%29.87 "Hg10 mi
1:53 AM55 °FCool.3 mph90%29.89 "Hg9 mi
12:53 AM53 °FCool.No wind89%29.90 "Hg10 mi
11:53 PM
Sep 20
56 °FCool.3 mph90%29.91 "Hg10 mi
10:53 PM56 °FCool.6 mph87%29.91 "Hg10 mi
Weather by CustomWeather, © 2014

See weather overviewHow to use our weather pages